Simultaneous Nadir Overpasses (SNOs) Predictions

Prediction of SNOs between METOP-B and TERRA Satellite Orbit:

Table of predicted SNOs for the next 14.0 days since TLE Epoch: 9/20/2014
Index Date (METOP-B) Time (METOP-B) Lat,Lon (METOP-B) SZA (METOP-B ) Date (TERRA) Time (TERRA) Lat,Lon (TERRA) SZA (TERRA ) Distance(km) Time Diff (sec)
1 09/21/2014 03:41:05 -81.34, -7.74 96.44 09/21/2014 03:41:53 -81.34, -7.60 96.39 2.39 48
2 09/21/2014 04:31:44 81.35, 160.30 83.67 09/21/2014 04:31:19 81.35, 160.16 83.64 2.35 25
3 09/23/2014 23:15:24 -81.34, 59.13 95.26 09/23/2014 23:16:05 -81.35, 58.98 95.26 2.56 41
4 09/24/2014 00:06:04 81.35,-133.21 84.80 09/24/2014 00:05:31 81.35,-133.30 84.77 1.59 33
5 09/26/2014 18:49:43 -81.34, 125.56 94.14 09/26/2014 18:50:16 -81.34, 125.39 94.15 2.84 33
6 09/
